Change the Weather History Date:

Thursday, October 31, 2013

  Actual Average Record
Temperature  
Mean Temperature 34 °F -  
Max Temperature 37 °F 50 °F 71 °F (1950)
Min Temperature 30 °F 22 °F 6 °F (1971)
Degree Days  
Heating Degree Days 32    
Moisture  
Dew Point 29 °F    
Average Humidity 81    
Maximum Humidity 100    
Minimum Humidity 60    
Precipitation  
Precipitation 0.00 in - - ()
Sea Level Pressure  
Sea Level Pressure 30.09 in    
Wind  
Wind Speed 4 mph (SW)    
Max Wind Speed 18 mph    
Max Gust Speed 23 mph    
Visibility 10 miles    
Events      
Averages and records for this station are not official NWS values.
T = Trace of Precipitation, MM = Missing Value Source: NWS Daily Summary

Daily Weather History Graph

Daily Weather History Graph

Search for Another Location

Airport or City:

Trip Planner

Search our weather history database for the weather conditions in past years. The results will help you decide how hot, cold, wet, or windy it might be!

Date:

Astronomy

Oct. 31, 2013 Rise Set
Actual Time 7:35 AM MDT 6:06 PM MDT
Civil Twilight 7:07 AM MDT 6:34 PM MDT
Nautical Twilight 6:35 AM MDT 7:06 PM MDT
Astronomical Twilight 6:04 AM MDT 7:37 PM MDT
Moon 4:28 AM MDT (10/31) 4:25 PM MDT (10/31)
Length of Visible Light 11h 27m
Length of Day
10h 31m
Waning Crescent, 9% of the Moon is Illuminated
Oct 31
Waning Crescent
Nov 3
New
Nov 9
First Quarter
Nov 17
Full
Nov 25
Last Quarter

Hourly Weather History & Observations

Time (MDT) Temp. Windchill Dew Point Humidity Pressure Visibility Wind Dir Wind Speed Gust Speed Precip Events Conditions
12:15 AM 30.2 °F 25.4 °F 30.2 °F 100% 30.01 in 10.0 mi ENE 4.6 mph - N/A   Overcast
12:35 AM 30.2 °F - 30.2 °F 100% 30.02 in 10.0 mi Calm Calm - N/A   Overcast
12:55 AM 32.0 °F - 30.2 °F 93% 30.02 in 10.0 mi Calm Calm - N/A   Overcast
1:15 AM 32.0 °F - 30.2 °F 93% 30.02 in 10.0 mi Calm Calm - N/A   Overcast
1:35 AM 32.0 °F - 30.2 °F 93% 30.02 in 10.0 mi Calm Calm - N/A   Overcast
1:55 AM 32.0 °F - 30.2 °F 93% 30.03 in 10.0 mi Calm Calm - N/A   Overcast
2:15 AM 32.0 °F - 30.2 °F 93% 30.03 in 10.0 mi Calm Calm - N/A   Overcast
2:35 AM 32.0 °F - 30.2 °F 93% 30.04 in 10.0 mi Calm Calm - N/A   Overcast
2:55 AM 32.0 °F - 30.2 °F 93% 30.04 in 10.0 mi Calm Calm - N/A   Overcast
3:15 AM 32.0 °F - 30.2 °F 93% 30.04 in 10.0 mi Calm Calm - N/A   Overcast
3:35 AM 32.0 °F - 30.2 °F 93% 30.04 in 10.0 mi Calm Calm - N/A   Overcast
3:55 AM 32.0 °F 28.7 °F 30.2 °F 93% 30.05 in 10.0 mi East 3.5 mph - N/A   Overcast
4:35 AM 32.0 °F - 30.2 °F 93% 30.05 in 10.0 mi Calm Calm - N/A   Overcast
4:55 AM 32.0 °F - 30.2 °F 93% 30.05 in 10.0 mi Calm Calm - N/A   Overcast
5:15 AM 32.0 °F - 30.2 °F 93% 30.06 in 10.0 mi Calm Calm - N/A   Overcast
5:35 AM 32.0 °F 28.7 °F 30.2 °F 93% 30.06 in 10.0 mi East 3.5 mph - N/A   Overcast
5:55 AM 32.0 °F 27.5 °F 30.2 °F 93% 30.08 in 10.0 mi ENE 4.6 mph - N/A   Overcast
6:15 AM 32.0 °F 25.6 °F 30.2 °F 93% 30.08 in 10.0 mi East 6.9 mph - N/A   Overcast
6:35 AM 32.0 °F 26.4 °F 30.2 °F 93% 30.08 in 10.0 mi ENE 5.8 mph - N/A   Overcast
6:50 AM 32.0 °F - 30.2 °F 93% 30.08 in 10.0 mi Calm Calm - N/A   Overcast
7:50 AM 32.0 °F 27.5 °F 30.2 °F 93% 30.10 in 10.0 mi Variable 4.6 mph - N/A   Overcast
8:50 AM 33.8 °F - 30.2 °F 87% 30.12 in 10.0 mi Calm Calm - N/A   Overcast
9:50 AM 35.6 °F 28.0 °F 30.2 °F 81% 30.13 in 10.0 mi SW 10.4 mph - N/A   Overcast
10:55 AM 35.6 °F 27.5 °F 26.6 °F 70% 30.14 in 10.0 mi SW 11.5 mph 17.3 mph N/A   Overcast
11:50 AM 35.6 °F 27.1 °F 26.6 °F 70% 30.14 in 10.0 mi SW 12.7 mph 21.9 mph N/A   Overcast
12:50 PM 37.4 °F 28.2 °F 24.8 °F 60% 30.13 in 10.0 mi SW 16.1 mph - N/A   Overcast
2:50 PM 37.4 °F 27.5 °F 26.6 °F 65% 30.10 in 10.0 mi SSW 18.4 mph 23.0 mph N/A   Overcast
3:50 PM 37.4 °F 32.1 °F 26.6 °F 65% 30.10 in 10.0 mi West 6.9 mph - N/A   Overcast
4:50 PM 37.4 °F 31.4 °F 26.6 °F 65% 30.11 in 10.0 mi WSW 8.1 mph - N/A   Overcast
5:50 PM 37.4 °F 30.8 °F 26.6 °F 65% 30.11 in 10.0 mi WSW 9.2 mph - N/A   Overcast
6:50 PM 37.4 °F 28.9 °F 28.4 °F 70% 30.10 in 10.0 mi SW 13.8 mph - N/A   Overcast
7:15 PM 37.4 °F 28.2 °F 26.6 °F 65% 30.11 in 10.0 mi SW 16.1 mph - N/A   Overcast
7:35 PM 37.4 °F 30.3 °F 26.6 °F 65% 30.11 in 10.0 mi SW 10.4 mph - N/A   Overcast
7:55 PM 37.4 °F 28.9 °F 26.6 °F 65% 30.11 in 10.0 mi SW 13.8 mph - N/A   Overcast
8:15 PM 37.4 °F 29.8 °F 26.6 °F 65% 30.11 in 10.0 mi SW 11.5 mph - N/A   Overcast
8:35 PM 37.4 °F 30.3 °F 26.6 °F 65% 30.11 in 10.0 mi WSW 10.4 mph - N/A   Overcast
8:55 PM 37.4 °F 29.3 °F 26.6 °F 65% 30.11 in 10.0 mi WSW 12.7 mph - N/A   Overcast
9:15 PM 35.6 °F 29.9 °F 26.6 °F 70% 30.11 in 10.0 mi WSW 6.9 mph - N/A   Overcast
9:35 PM 35.6 °F 29.9 °F 26.6 °F 70% 30.11 in 10.0 mi West 6.9 mph - N/A   Overcast
9:55 PM 35.6 °F 28.0 °F 28.4 °F 75% 30.12 in 10.0 mi West 10.4 mph - N/A   Overcast
10:15 PM 37.4 °F 30.8 °F 28.4 °F 70% 30.13 in 10.0 mi West 9.2 mph - N/A   Overcast
10:35 PM 35.6 °F 27.5 °F 28.4 °F 75% 30.12 in 10.0 mi WSW 11.5 mph - N/A   Overcast
10:55 PM 35.6 °F 27.1 °F 28.4 °F 75% 30.12 in 10.0 mi WSW 12.7 mph - N/A   Overcast
11:15 PM 35.6 °F 28.6 °F 28.4 °F 75% 30.12 in 10.0 mi WSW 9.2 mph - N/A   Overcast
11:35 PM 35.6 °F 30.7 °F 28.4 °F 75% 30.13 in 10.0 mi WSW 5.8 mph - N/A   Overcast
11:55 PM 35.6 °F - 28.4 °F 75% 30.12 in 10.0 mi Calm Calm - N/A   Overcast